Date String (YYYY-MM-DD hh:mm:ss) UTC,Instrument flags,absolute air pressure of the measurement (hPa),sample flow rate (lpm),inlet stack bypass flow (lpm),air temperature of the measurement (°C),ambient temperature measured by the external sensor (°C),aerosol sample conditioner tube jacket temperature (°C),OPC LED temperature (°C),internal box temperature (°C),relative humidity of the measurement (%),span deviation,mass concentration of particles derived from Lorenz-Mie calculation of OPC scattering (μg/m³),mass concentration of particles derived from Lorenz-Mie calculation of OPC scattering (μg/m³),mass concentration of particles derived from Lorenz-Mie calculation of OPC scattering (μg/m³)
DateTimeUTC,F1_M11,P_M11,Q1_M11,Q2_M11,T1_M11,T2_M11,T3_M11,T4_M11,T5_M11,U1_M11,ZSPAN_M11,X0_M11,X2_M11,X1_M11
2024-01-26 16:00:00,SystemResetWarning,0833.2,4.99,000.00,020.6,019.5,000.0,029.0,022.0,20.3,0000.0,0004.25,0003.46,0003.32
2024-01-26 16:01:00,SystemResetWarning,0833.2,5.00,000.00,020.6,019.5,000.0,029.0,021.9,20.2,0000.0,0004.19,0003.36,0003.23
2024-01-26 16:02:00,SystemResetWarning,0833.2,5.00,000.00,020.6,019.5,000.0,029.0,021.9,20.4,0000.0,0003.97,0003.26,0003.14
2024-01-26 16:03:00,SystemResetWarning,0833.2,5.00,000.00,020.6,019.5,000.0,029.0,021.9,20.3,0000.0,0003.84,0003.20,0003.05
2024-01-26 16:04:00,SystemResetWarning,0833.2,5.00,000.00,020.6,019.4,000.0,028.9,021.9,20.1,0000.0,0003.75,0003.14,0002.95
2024-01-26 16:05:00,SystemResetWarning,0833.2,5.01,000.00,020.6,019.4,000.0,028.9,021.9,20.4,0000.0,0003.73,0003.10,0002.88
2024-01-26 16:06:00,SystemResetWarning,0833.2,5.01,000.00,020.6,019.4,000.0,028.9,021.9,20.6,0000.0,0003.59,0003.02,0002.81
2024-01-26 16:07:00,SystemResetWarning,0833.2,5.01,000.00,020.6,019.4,000.0,028.9,021.9,20.8,0000.0,0003.40,0002.92,0002.75
2024-01-26 16:08:00,SystemResetWarning,0833.2,5.00,000.00,020.6,019.4,000.0,028.9,021.9,20.8,0000.0,0003.34,0002.87,0002.69
2024-01-26 16:09:00,SystemResetWarning,0833.2,5.00,000.00,020.6,019.4,000.0,028.9,021.9,20.7,0000.0,0003.36,0002.84,0002.64
2024-01-26 16:10:00,SystemResetWarning,0833.2,4.99,000.00,020.6,019.4,000.0,028.9,021.9,20.8,0000.0,0003.34,0002.82,0002.62
2024-01-26 16:11:00,SystemResetWarning,0833.2,5.00,000.00,020.6,019.4,000.0,028.9,021.9,20.6,0000.0,0003.37,0002.84,0002.65
2024-01-26 16:12:00,SystemResetWarning,0833.3,4.99,000.00,020.6,019.4,000.0,028.9,021.9,20.5,0000.0,0003.31,0002.86,0002.68
2024-01-26 16:13:00,SystemResetWarning,0833.2,5.00,000.00,020.6,019.4,000.0,028.9,021.9,20.4,0000.0,0003.36,0002.92,0002.73
2024-01-26 16:14:00,SystemResetWarning,0833.2,5.01,000.00,020.6,019.4,000.0,028.9,021.9,20.5,0000.0,0003.49,0003.01,0002.82
2024-01-26 16:15:00,SystemResetWarning,0833.3,5.01,000.00,020.6,019.4,000.0,028.9,021.9,20.6,0000.0,0003.67,0003.13,0002.97
2024-01-26 16:16:00,SystemResetWarning,0833.3,5.01,000.00,020.6,019.4,000.0,028.9,021.9,20.6,0000.0,0003.80,0003.24,0003.14
2024-01-26 16:17:00,SystemResetWarning,0833.3,5.00,000.00,020.6,019.4,000.0,028.9,021.9,20.6,0000.0,0004.07,0003.36,0003.25
2024-01-26 16:18:00,SystemResetWarning,0833.4,4.99,000.00,020.6,019.4,000.0,028.9,021.9,20.7,0000.0,0004.26,0003.45,0003.34
2024-01-26 16:19:00,SystemResetWarning,0833.4,5.00,000.00,020.5,019.4,000.0,028.9,021.9,20.9,0000.0,0005.23,0003.58,0003.45
2024-01-26 16:20:00,SystemResetWarning,0833.4,4.99,000.00,020.5,019.4,000.0,028.9,021.9,20.9,0000.0,0005.88,0003.72,0003.59
2024-01-26 16:21:00,SystemResetWarning,0833.4,4.99,000.00,020.5,019.4,000.0,028.9,021.9,21.0,0000.0,0006.17,0003.88,0003.77
2024-01-26 16:22:00,SystemResetWarning,0833.4,5.00,000.00,020.5,019.4,000.0,028.9,021.9,21.1,0000.0,0006.44,0004.03,0003.92
2024-01-26 16:23:00,SystemResetWarning,0833.4,5.01,000.00,020.5,019.4,000.0,028.9,021.9,21.1,0000.0,0006.70,0004.18,0004.07
2024-01-26 16:24:00,SystemResetWarning,0833.4,5.00,000.00,020.5,019.4,000.0,028.9,021.8,21.1,0000.0,0007.10,0004.33,0004.20
2024-01-26 16:25:00,SystemResetWarning,0833.4,5.01,000.00,020.5,019.4,000.0,028.8,021.8,21.1,0000.0,0007.27,0004.42,0004.30
2024-01-26 16:26:00,SystemResetWarning,0833.4,5.00,000.00,020.5,019.4,000.0,028.8,021.8,21.1,0000.0,0007.32,0004.48,0004.36
2024-01-26 16:27:00,SystemResetWarning,0833.4,5.00,000.00,020.5,019.4,000.0,028.8,021.8,20.9,0000.0,0007.31,0004.49,0004.37
2024-01-26 16:28:00,SystemResetWarning,0833.4,4.99,000.00,020.5,019.3,000.0,028.8,021.8,20.7,0000.0,0007.30,0004.50,0004.39
2024-01-26 16:29:00,SystemResetWarning,0833.5,5.00,000.00,020.5,019.3,000.0,028.8,021.8,20.4,0000.0,0007.36,0004.55,0004.43
2024-01-26 16:30:00,SystemResetWarning,0833.5,5.00,000.00,020.5,019.3,000.0,028.8,021.8,20.4,0000.0,0006.74,0004.58,0004.45
2024-01-26 16:31:00,SystemResetWarning,0833.6,5.01,000.00,020.5,019.3,000.0,028.8,021.8,20.4,0000.0,0006.28,0004.56,0004.44
2024-01-26 16:32:00,SystemResetWarning,0833.6,5.01,000.00,020.5,019.3,000.0,028.8,021.8,20.6,0000.0,0006.21,0004.54,0004.42
2024-01-26 16:33:00,SystemResetWarning,0833.6,4.99,000.00,020.5,019.3,000.0,028.8,021.8,20.5,0000.0,0006.23,0004.51,0004.38
2024-01-26 16:34:00,SystemResetWarning,0833.6,4.99,000.00,020.5,019.3,000.0,028.8,021.8,20.7,0000.0,0006.27,0004.50,0004.34
2024-01-26 16:35:00,SystemResetWarning,0833.6,5.00,000.00,020.5,019.3,000.0,028.8,021.8,20.7,0000.0,0006.24,0004.50,0004.32
2024-01-26 16:36:00,SystemResetWarning,0833.6,5.01,000.00,020.5,019.3,000.0,028.8,021.8,20.7,0000.0,0006.27,0004.51,0004.31
2024-01-26 16:37:00,SystemResetWarning,0833.6,5.01,000.00,020.5,019.3,000.0,028.8,021.8,20.8,0000.0,0006.22,0004.48,0004.29
2024-01-26 16:38:00,SystemResetWarning,0833.6,5.00,000.00,020.5,019.3,000.0,028.8,021.8,20.9,0000.0,0006.24,0004.49,0004.29
2024-01-26 16:39:00,SystemResetWarning,0833.7,5.00,000.00,020.5,019.3,000.0,028.8,021.8,20.8,0000.0,0006.35,0004.51,0004.30
2024-01-26 16:40:00,SystemResetWarning,0833.7,4.99,000.00,020.5,019.3,000.0,028.8,021.8,20.8,0000.0,0006.28,0004.48,0004.29
2024-01-26 16:41:00,SystemResetWarning,0833.7,4.99,000.00,020.5,019.4,000.0,028.8,021.8,20.9,0000.0,0006.24,0004.47,0004.29
2024-01-26 16:42:00,SystemResetWarning,0833.7,5.00,000.00,020.5,019.4,000.0,028.8,021.8,20.8,0000.0,0006.24,0004.47,0004.29
2024-01-26 16:43:00,SystemResetWarning,0833.7,5.01,000.00,020.5,019.4,000.0,028.8,021.8,20.9,0000.0,0006.29,0004.48,0004.28
2024-01-26 16:44:00,SystemResetWarning,0833.7,5.00,000.00,020.5,019.4,000.0,028.8,021.8,21.1,0000.0,0006.32,0004.49,0004.30
2024-01-26 16:45:00,SystemResetWarning,0833.7,4.99,000.00,020.5,019.4,000.0,028.8,021.8,21.0,0000.0,0006.26,0004.49,0004.31
2024-01-26 16:46:00,SystemResetWarning,0833.7,4.99,000.00,020.5,019.4,000.0,028.8,021.8,20.9,0000.0,0007.30,0004.48,0004.33
2024-01-26 16:47:00,SystemResetWarning,0833.7,5.00,000.00,020.5,019.4,000.0,028.8,021.8,20.9,0000.0,0007.30,0004.49,0004.35
2024-01-26 16:48:00,SystemResetWarning,0833.7,5.01,000.00,020.5,019.4,000.0,028.8,021.8,21.0,0000.0,0007.34,0004.52,0004.37
2024-01-26 16:49:00,SystemResetWarning,0833.7,5.01,000.00,020.5,019.4,000.0,028.8,021.8,20.9,0000.0,0007.41,0004.54,0004.38
2024-01-26 16:50:00,SystemResetWarning,0833.7,5.00,000.00,020.5,019.4,000.0,028.8,021.8,20.6,0000.0,0007.41,0004.55,0004.41
2024-01-26 16:51:00,SystemResetWarning,0833.7,4.99,000.00,020.5,019.4,000.0,028.8,021.8,20.1,0000.0,0007.40,0004.56,0004.43
2024-01-26 16:52:00,SystemResetWarning,0833.8,5.01,000.00,020.5,019.4,000.0,028.8,021.8,19.8,0000.0,0007.45,0004.59,0004.45
2024-01-26 16:53:00,SystemResetWarning,0833.8,5.01,000.00,020.5,019.4,000.0,028.8,021.8,20.0,0000.0,0007.52,0004.62,0004.46
2024-01-26 16:54:00,SystemResetWarning,0833.8,5.01,000.00,020.5,019.4,000.0,028.8,021.8,20.2,0000.0,0007.50,0004.62,0004.47
2024-01-26 16:55:00,SystemResetWarning,0833.8,4.99,000.00,020.5,019.4,000.0,028.8,021.8,20.3,0000.7,0007.46,0004.60,0004.46
2024-01-26 16:56:00,SystemResetWarning,0833.8,4.99,000.00,020.5,019.4,000.0,028.8,021.8,20.5,0000.1,0007.45,0004.59,0004.44
2024-01-26 16:57:00,SystemResetWarning,0833.8,5.00,000.00,020.5,019.4,000.0,028.8,021.8,20.4,0000.0,0006.56,0004.57,0004.42
2024-01-26 16:58:00,SystemResetWarning,0833.9,4.99,000.00,020.5,019.4,000.0,028.8,021.8,20.5,0000.2,0006.29,0004.54,0004.41
2024-01-26 16:59:00,SystemResetWarning,0833.7,5.00,000.00,020.5,019.4,000.0,028.8,021.8,20.6,0000.9,0006.20,0004.52,0004.41
